Location: Quispamsis
(45.4447°N, 65.9414°W)
Time: 06:11:05
(UTC-03:00)

Daily predictions for brighter satellites

Satellite Brightness Start Highest point End
(mag) Time Altitude Azimuth Time Altitude Azimuth Time Altitude Azimuth
Cosmos 909 Rocket 4.5 21:25:54 10° S 21:32:09 51° ESE 21:39:36 10° NE
Cosmos 407 Rocket 4.2 21:31:13 10° N 21:36:11 41° ENE 21:41:09 10° SE
CZ-4 SHROUD 4.5 21:36:08 10° SE 21:38:45 26° ENE 21:41:24 10° NNE
Cosmos 2074 Rocket 4.1 21:32:41 10° S 21:38:53 67° E 21:45:07 10° NNE
ERBS 2.4 21:36:02 10° NW 21:39:31 79° NE 21:42:59 10° SE
Cosmos 1238 Rocket 4.2 21:38:28 10° NE 21:40:22 15° ENE 21:42:22 10° ESE
COSMOS 2406 3.3 21:36:43 10° NNW 21:42:31 77° ENE 21:48:14 10° SSE
SPOT 5 3.3 21:41:10 10° SSE 21:46:17 59° ENE 21:51:34 10° N
Cosmos 1190 Rocket 4.2 21:41:40 10° NNW 21:46:49 59° ENE 21:51:56 10° SE
Meteor 1-10 Rocket 4.3 21:41:39 10° N 21:47:33 73° ENE 21:53:18 10° SSE
ERS-1 Rocket 3.4 21:44:58 10° S 21:49:58 66° WSW 21:55:01 10° NNW
Nadezhda 3 Rocket 4.5 21:44:31 10° N 21:50:37 47° ENE 21:56:42 10° SSE
H-2A R/B 2.1 21:48:19 10° SSE 21:52:41 89° W 21:56:58 10° NNW
MetOp-B 4.4 21:47:48 10° SSE 21:53:01 56° ENE 21:58:15 10° N
Cosmos 1356 Rocket 3.5 21:50:36 10° S 21:54:49 89° W 21:59:08 10° N
ATLAS 5 CENTAUR R/B 2.5 21:53:07 10° NW 21:59:05 79° SW 22:05:21 11° SSE
PSLV R/B 3.3 21:57:05 11° SSE 21:59:47 51° ENE 22:02:40 10° N
Cosmos 1862 4.2 21:57:47 10° SSE 22:01:23 31° E 22:05:02 10° NNE
ARGOS 3.8 21:57:03 11° SE 22:01:54 42° ENE 22:06:54 10° N
Terra 3.6 21:59:21 10° ESE 22:02:35 18° ENE 22:05:48 10° NNE
USA 234 4.0 21:57:27 10° ENE 22:02:50 27° SE 22:08:12 10° S
Cosmos 2278 Rocket 3.2 22:02:16 10° SSE 22:06:47 25° ESE 22:11:19 10° NE
Okean 2 Rocket 4.3 22:05:25 13° SE 22:08:16 24° E 22:11:49 10° NE
Cosmos 2341 Rocket 4.4 22:02:31 10° SSE 22:08:27 44° E 22:14:20 10° NNE
Cosmos 1844 4.2 22:03:40 10° S 22:08:57 39° ESE 22:14:18 10° NE
CZ-4B R/B 4.0 22:05:49 10° NNE 22:10:28 38° E 22:14:58 10° SSE
Sich 1 Rocket 3.7 22:06:54 10° S 22:11:26 66° E 22:16:00 10° NNE
PSLV R/B 4.4 22:08:50 10° WSW 22:11:54 30° SSW 22:13:55 17° SE
Abrixas rocket 4.5 22:12:26 10° W 22:14:42 17° SW 22:16:54 10° S
Cosmos 676 Rocket 4.1 22:11:21 10° NNW 22:16:32 65° ENE 22:20:43 16° SSE
Meteor 1-27 Rocket 3.7 22:13:29 10° N 22:19:08 79° E 22:24:15 12° SSE
Cosmos 1674 Rocket 4.0 22:15:32 10° NNW 22:19:58 64° W 22:24:22 10° S
Cosmos 1844 Rocket 2.7 22:14:43 10° S 22:20:18 64° ESE 22:25:54 10° NNE
Cosmos 2056 Rocket 3.5 22:15:18 10° SSW 22:20:29 84° WNW 22:25:39 10° NNE
Cosmos 1825 2.5 22:19:37 15° SSE 22:22:33 45° E 22:26:13 10° NNE
Cosmos 2082 Rocket 3.7 22:18:44 10° N 22:23:29 26° NE 22:27:47 12° ESE
Cosmos 1954 Rocket 4.2 22:19:09 10° NNW 22:24:18 59° ENE 22:28:06 18° SE
Cosmos 1174 3.4 22:21:30 10° NNW 22:24:54 60° NE 22:26:35 23° SE
Cosmos 1782 3.7 22:24:42 10° NNW 22:28:36 48° W 22:32:29 10° SSW
Cosmos 1184 Rocket 3.4 22:30:39 24° SSE 22:32:12 39° E 22:35:21 10° NNE
Cosmos 1782 Rocket 3.8 22:30:14 16° SSE 22:33:37 52° E 22:37:59 10° NNE
Cosmos 2263 Rocket 4.5 22:30:44 10° WSW 22:35:32 28° NW 22:40:21 10° N
CENTAUR R/B 3.9 22:28:30 10° NW 22:35:50 44° WSW 22:43:29 10° S
Cosmos 962 Rocket 4.5 22:30:26 10° S 22:36:32 71° E 22:42:43 10° NNE
SL-8 Rocket 4.4 22:32:33 17° SSE 22:37:05 44° E 22:42:58 10° NNE
COSMOS 2487 2.8 22:34:22 10° NNW 22:37:57 54° ENE 22:39:40 27° SE
CZ-4 R/B 4.0 22:34:27 10° NNE 22:39:04 51° E 22:42:22 18° S
SL-27 R/B 3.9 22:36:22 10° NW 22:39:45 35° WSW 22:42:35 13° SSW
Cosmos 2154 Rocket 4.0 22:35:01 10° S 22:41:15 85° W 22:47:30 10° N
YAOGAN 6 3.3 22:40:07 15° S 22:42:50 48° W 22:46:16 10° NNW
IGS 5A 4.4 22:41:30 22° ESE 22:43:27 33° ENE 22:47:12 10° N
Cosmos 1408 2.5 22:40:58 17° S 22:43:45 83° E 22:47:25 10° N
SL-8 R/B 3.6 22:39:42 10° WSW 22:44:30 73° SSE 22:49:18 10° ENE
NOSS 2-2 (D) 4.2 22:42:00 10° SW 22:46:10 62° NW 22:51:11 10° NE
COS B Rocket 4.3 22:42:43 10° N 22:46:53 49° W 22:50:43 10° SSW
Cosmos 1975 Rocket 2.9 22:43:18 10° N 22:47:39 82° E 22:50:14 24° SSE
SL-08 RB Rocket 3.7 22:46:48 22° SSE 22:49:48 90° SE 22:54:29 10° NNW
Cosmos 1606 3.8 22:47:27 10° NNW 22:51:13 43° W 22:54:20 14° SSW
NOAA 11 4.3 22:47:01 18° S 22:51:13 80° WSW 22:56:45 10° NNW
CARTOSAT-1 4.0 22:50:36 27° SE 22:52:38 48° ENE 22:56:48 10° N
Okean 3 3.7 22:50:38 10° NNW 22:54:55 70° W 22:57:39 21° S
Elektron 3 3.9 22:54:09 10° NW 22:57:01 77° SW 22:58:24 34° SSE
Cosmos 1908 Rocket 4.4 22:54:49 10° SSW 22:59:05 50° WNW 23:03:25 10° N
H-2A R/B 2.2 22:56:03 25° SSE 22:59:16 68° ENE 23:04:35 10° N
USA 245 4.0 22:58:29 20° SSW 23:00:08 37° W 23:03:32 10° NNW
Cosmos 1536 Rocket 4.4 22:56:06 10° N 23:00:17 37° ENE 23:01:53 28° ESE
Cosmos 1242 Rocket 2.5 22:58:14 10° N 23:01:53 87° ENE 23:03:15 37° SSE
Cosmos 1023 Rocket 4.4 22:57:54 10° NNW 23:03:02 85° ENE 23:05:42 29° SSE
Cosmos 1295 Rocket 4.5 22:58:16 15° S 23:03:38 82° E 23:09:57 10° N
Cosmos 1420 Rocket 4.0 23:06:05 22° S 23:09:26 62° ESE 23:14:37 10° NNE
Cosmos 2151 Rocket 3.9 23:11:38 35° SE 23:13:07 51° E 23:17:32 10° NNE
Intercosmos 25 3.2 23:12:07 25° SSW 23:14:09 71° W 23:17:20 10° N
Cosmos 2366 rocket 4.1 23:11:29 26° SSE 23:15:05 62° E 23:21:19 10° NNE
Meteor 1-18 Rocket 4.5 23:13:04 10° N 23:18:54 62° ENE 23:21:39 32° SE
Cosmos 1238 Rocket 4.3 23:17:45 10° NW 23:20:15 23° W 23:22:00 15° SW
Meteor 1-14 Rocket 4.2 23:17:34 25° S 23:21:01 77° E 23:26:39 10° NNE
Cosmos 1452 Rocket 4.2 23:18:43 10° SW 23:23:53 55° WNW 23:29:05 10° NNE
Landsat 7 4.2 23:21:42 28° S 23:24:06 60° W 23:28:50 10° NNW
NOSS 5 (C) 4.1 23:25:16 43° SW 23:26:10 83° NW 23:29:19 10° NE
SAR-Lupe-2 3.5 23:28:10 60° SE 23:28:42 74° ENE 23:32:16 10° N
ASTEX 1 3.7 23:26:44 10° NNE 23:31:34 51° E 23:32:54 40° SE
BREEZE-M TANK 3.1 23:23:04 10° W 23:34:06 88° S 23:35:56 30° E
Cosmos 2084 3.1 23:32:17 25° SW 23:34:27 84° NW 23:38:19 10° NE
Cosmos 614 Rocket 3.9 23:29:34 10° NNW 23:34:42 78° WSW 23:36:33 40° S
Cosmos 1140 Rocket 4.0 23:30:25 10° NNW 23:35:23 51° WSW 23:37:36 30° SSW
Spot 4 3.8 23:34:20 40° S 23:36:08 85° WSW 23:41:01 10° NNW
Cosmos 2218 Rocket 4.1 23:32:39 23° SSW 23:36:56 82° W 23:43:24 10° N
Okean 1-7 Rocket 4.3 23:35:13 10° N 23:39:29 39° ENE 23:40:18 36° ESE
Terra 2.1 23:37:58 34° SSW 23:39:52 60° W 23:44:35 10° NNW
DMSP B5D2-2 4.0 23:35:10 10° NNE 23:40:25 85° WNW 23:43:08 29° SSW
USA 234 3.2 23:39:48 10° NE 23:46:23 89° SE 23:52:55 10° SW
Okean 1 Rocket 3.6 23:47:20 42° ESE 23:47:41 42° E 23:51:56 10° NNE
Cosmos 2278 Rocket 2.9 23:44:57 10° SW 23:50:30 54° WNW 23:56:05 10° NNE
Cosmos 1727 Rocket 4.1 23:46:28 10° NNW 23:52:38 72° W 23:55:27 34° S
Cosmos 1300 Rocket 3.7 23:52:19 53° ESE 23:52:45 55° E 23:57:07 10° NNE
Cosmos 1025 Rocket 4.3 23:50:48 10° NNE 23:54:38 29° ENE 23:55:10 28° E
Gbstr 26 Del rocket 4.0 23:50:29 10° WNW 23:55:15 46° NNE 23:57:43 21° ENE
